AISAT (40054 NORAD) Tracking and Keplerian Element Data

This shows tracking and keplerian element data for the satellite.

Feedback or suggestion? Click here.




ElementValue
Catalog40054
NameAISAT
Epoch Orbit23974
Epoch Day345.17454091
Epoch Year2018
RAAN98.7335
Inclination98.2157
Eccentricity0.0014083
Argument of Perigee107.7482
Mean Anonmoly252.5266
Mean Motion14.77626177
Decay Rate3.84E-06
L11 40054U 14034B 18345.17454091 .00000384 00000-0 61263-4 0 9994
L22 40054 98.2157 98.7335 0014083 107.7482 252.5266 14.77626177239748

Live tracking and technical data element details for AISAT (NORAD 40054). AISAT can be tracked NOW for your location showing map with azimuth and elevation plus other details from your city location.

Track the satellite on the map from your city or location and see movement details for azimuth, elevation, latitude, longitude, range, height, and movement on the map or in text.







IsCatalogInMostPopularTable: catalog: 40054, numindb: 81
Update: records affected: 1



GetName: 40054 AISAT

Hit Count: updated at: Thu, 13 Dec 2018 04:56:25 GMT